M I D A S
Marine Information and Data Acquisition System
Tripno 858 of the Zeeleeuw from 2005-03-08 07:18:40 to 2005-03-08 16:14:43
Back to CruiseResearch ActivitiesStationsMapUnderway DataData graphs

EquipmentUnitsComments
TimeDGPSUTC
LatitudeDGPSDM.mWGS84
LongitudeDGPSDM.mWGS84
SpeedMeteo Stationm/sRelative wind speed
DirectionMeteo StationdegRelative wind direction
TemperatureMeteo Stationdeg CelciusAir temperature
PressureMeteo StationPaAtmospheric pressure
HumidityMeteo Station%Relative humidity
Missing or incorrect values are displayed as -999
Metereological data collected by the RV Zeeleeuw from 2005-03-08 07:19:27 to 2005-03-08 16:24:33
                                                                                    Next 1000 lines
Time Latitude Longitude Speed Direction Temperature Pressure Humidity
2005-03-08 07:19:37 51°13.598 2°56.086 6.6 214 4.7 102550 90
2005-03-08 07:19:43 51°13.6 2°56.08 5.8 210 4.7 102550 90
2005-03-08 07:19:48 51°13.602 2°56.074 6.8 209 4.7 102550 90
2005-03-08 07:19:52 51°13.604 2°56.068 6.7 206 4.7 102550 90
2005-03-08 07:19:57 51°13.606 2°56.061 7.7 200 4.7 102550 90
2005-03-08 07:20:02 51°13.608 2°56.053 8.4 219 4.7 102550 90
2005-03-08 07:20:07 51°13.61 2°56.046 8.1 212 4.7 102550 90
2005-03-08 07:20:12 51°13.613 2°56.038 7.6 209 4.7 102550 90
2005-03-08 07:20:17 51°13.615 2°56.03 7.3 216 4.7 102550 90
2005-03-08 07:20:22 51°13.617 2°56.021 5.6 211 4.7 102550 90
2005-03-08 07:20:27 51°13.619 2°56.013 5.9 194 4.7 102550 90
2005-03-08 07:20:32 51°13.622 2°56.004 6.8 196 4.6 102550 90
2005-03-08 07:20:38 51°13.625 2°55.995 6.9 205 4.6 102550 90
2005-03-08 07:20:42 51°13.627 2°55.986 5.1 194 4.6 102550 90
2005-03-08 07:20:47 51°13.63 2°55.979 7.2 198 4.6 102550 90
2005-03-08 07:20:52 51°13.634 2°55.969 7.7 193 4.7 102550 91
2005-03-08 07:20:57 51°13.638 2°55.96 6.2 195 4.7 102550 91
2005-03-08 07:21:02 51°13.641 2°55.951 6.1 194 4.6 102550 91
2005-03-08 07:21:07 51°13.645 2°55.942 4.7 193 4.6 102550 91
2005-03-08 07:21:12 51°13.649 2°55.934 5.5 191 4.6 102540 91
2005-03-08 07:21:18 51°13.654 2°55.924 7.3 206 4.6 102540 91
2005-03-08 07:21:23 51°13.658 2°55.915 5.3 194 4.7 102540 91
2005-03-08 07:21:27 51°13.661 2°55.907 5.7 197 4.7 102540 91
2005-03-08 07:21:32 51°13.665 2°55.898 6.4 190 4.9 102550 92
2005-03-08 07:21:37 51°13.669 2°55.889 7.9 211 4.9 102550 92
2005-03-08 07:21:42 51°13.673 2°55.88 7.5 203 4.9 102550 92
2005-03-08 07:21:47 51°13.676 2°55.872 7.8 208 4.9 102550 92
2005-03-08 07:21:52 51°13.68 2°55.863 6 199 5 102540 93
2005-03-08 07:21:58 51°13.683 2°55.854 7.9 209 5 102540 93
2005-03-08 07:22:03 51°13.686 2°55.845 7.4 198 4.9 102550 92
2005-03-08 07:22:07 51°13.688 2°55.838 9.1 218 4.9 102550 92
2005-03-08 07:22:12 51°13.691 2°55.83 8.4 221 4.9 102550 91
2005-03-08 07:22:17 51°13.692 2°55.822 8.4 213 4.9 102550 91
2005-03-08 07:22:21 51°13.694 2°55.816 8.9 209 4.9 102560 91
2005-03-08 07:22:27 51°13.696 2°55.806 9.4 221 4.9 102560 91
2005-03-08 07:22:32 51°13.698 2°55.797 9.8 209 4.9 102550 90
2005-03-08 07:22:37 51°13.699 2°55.788 10.4 215 4.9 102550 90
2005-03-08 07:22:42 51°13.701 2°55.779 10 214 4.8 102550 90
2005-03-08 07:22:47 51°13.702 2°55.771 9.9 232 4.8 102550 90
2005-03-08 07:22:52 51°13.703 2°55.762 10.3 225 4.8 102550 90
2005-03-08 07:22:57 51°13.704 2°55.754 7.9 238 4.8 102550 90
2005-03-08 07:23:02 51°13.704 2°55.748 7 226 4.8 102550 90
2005-03-08 07:23:07 51°13.704 2°55.743 8.3 246 4.8 102550 90
2005-03-08 07:23:12 51°13.704 2°55.741 4.5 256 4.8 102560 90
2005-03-08 07:23:17 51°13.704 2°55.74 5.1 258 4.8 102560 90
2005-03-08 07:23:22 51°13.705 2°55.741 5.2 262 4.8 102560 90
2005-03-08 07:23:27 51°13.705 2°55.744 8.8 270 4.8 102560 90
2005-03-08 07:23:32 51°13.707 2°55.747 8.5 266 4.7 102550 90
2005-03-08 07:23:37 51°13.707 2°55.749 9 278 4.7 102550 90
2005-03-08 07:23:42 51°13.708 2°55.75 8 271 4.7 102550 90
2005-03-08 07:23:47 51°13.708 2°55.751 7.7 264 4.7 102550 90
2005-03-08 07:23:51 51°13.708 2°55.75 8 280 4.7 102550 90
2005-03-08 07:23:57 51°13.707 2°55.749 9.3 278 4.7 102550 90
2005-03-08 07:24:02 51°13.706 2°55.746 8.2 276 4.7 102550 90
2005-03-08 07:24:07 51°13.704 2°55.744 9.5 267 4.7 102550 90
2005-03-08 07:24:11 51°13.703 2°55.742 11 274 4.7 102550 90
2005-03-08 07:24:17 51°13.701 2°55.738 8.9 271 4.7 102550 90
2005-03-08 07:24:22 51°13.699 2°55.735 9.7 277 4.7 102550 90
2005-03-08 07:24:27 51°13.698 2°55.734 9.7 273 4.7 102550 90
2005-03-08 07:24:33 51°13.698 2°55.734 7.9 273 4.7 102550 91
2005-03-08 07:24:37 51°13.699 2°55.735 7 289 4.7 102550 91
2005-03-08 07:24:42 51°13.701 2°55.737 7 299 4.7 102550 91
2005-03-08 07:24:47 51°13.705 2°55.739 7.7 327 4.7 102550 91
2005-03-08 07:24:51 51°13.708 2°55.739 6.4 340 4.7 102540 91
2005-03-08 07:24:57 51°13.714 2°55.739 10.2 352 4.7 102540 91
2005-03-08 07:25:02 51°13.72 2°55.737 7.3 352 4.7 102540 91
2005-03-08 07:25:07 51°13.725 2°55.733 11 358 4.7 102540 91
2005-03-08 07:25:12 51°13.73 2°55.729 9.5 11 4.7 102520 91
2005-03-08 07:25:17 51°13.735 2°55.725 10.5 359 4.7 102520 91
2005-03-08 07:25:21 51°13.739 2°55.721 9.7 348 4.7 102520 91
2005-03-08 07:25:27 51°13.744 2°55.716 8.7 4 4.7 102520 91
2005-03-08 07:25:32 51°13.75 2°55.711 10.3 7 4.7 102530 91
2005-03-08 07:25:37 51°13.756 2°55.705 8.8 355 4.7 102530 91
2005-03-08 07:25:41 51°13.762 2°55.699 9.6 349 4.7 102530 91
2005-03-08 07:25:47 51°13.77 2°55.691 12.1 4 4.7 102530 91
2005-03-08 07:25:52 51°13.777 2°55.683 11.2 357 4.7 102520 91
2005-03-08 07:25:56 51°13.784 2°55.676 11.7 357 4.7 102520 91
2005-03-08 07:26:01 51°13.792 2°55.668 14.6 357 4.7 102520 91
2005-03-08 07:26:07 51°13.803 2°55.658 12.3 -999 4.7 102520 91
2005-03-08 07:26:11 51°13.81 2°55.651 10.3 351 4.6 102520 91
2005-03-08 07:26:17 51°13.822 2°55.641 12 358 4.6 102520 91
2005-03-08 07:26:21 51°13.831 2°55.634 11.5 358 4.6 102520 91
2005-03-08 07:26:27 51°13.845 2°55.624 10.1 359 4.6 102520 91
2005-03-08 07:26:31 51°13.852 2°55.619 10 353 4.6 102520 91
2005-03-08 07:26:37 51°13.866 2°55.609 9.7 353 4.6 102520 91
2005-03-08 07:26:41 51°13.876 2°55.601 10.8 358 4.6 102520 91
2005-03-08 07:26:47 51°13.889 2°55.592 8.9 352 4.6 102520 91
2005-03-08 07:26:51 51°13.898 2°55.585 9.2 358 4.6 102530 91
2005-03-08 07:26:57 51°13.912 2°55.574 12 6 4.6 102530 91
2005-03-08 07:27:01 51°13.923 2°55.567 10.5 2 4.6 102530 91
2005-03-08 07:27:07 51°13.936 2°55.557 11 353 4.6 102530 91
2005-03-08 07:27:12 51°13.949 2°55.547 12.1 2 4.6 102530 91
2005-03-08 07:27:17 51°13.961 2°55.539 11.8 358 4.6 102530 91
2005-03-08 07:27:21 51°13.971 2°55.532 11.8 360 4.6 102530 91
2005-03-08 07:27:27 51°13.984 2°55.522 11.9 2 4.6 102530 91
2005-03-08 07:27:32 51°13.998 2°55.513 12.9 359 4.6 102520 91
2005-03-08 07:27:37 51°14.008 2°55.505 13.2 358 4.6 102520 91
2005-03-08 07:27:41 51°14.019 2°55.497 13.6 355 4.6 102530 91
2005-03-08 07:27:47 51°14.033 2°55.488 10.2 353 4.6 102530 91
2005-03-08 07:27:52 51°14.045 2°55.479 12.7 350 4.6 102520 91
2005-03-08 07:27:57 51°14.057 2°55.47 13.3 356 4.6 102520 91
2005-03-08 07:28:01 51°14.067 2°55.463 12.9 350 4.5 102510 91
2005-03-08 07:28:07 51°14.081 2°55.453 12.3 355 4.5 102510 91
2005-03-08 07:28:11 51°14.09 2°55.446 13.9 350 4.5 102520 91
2005-03-08 07:28:17 51°14.105 2°55.435 13.2 355 4.5 102520 91
2005-03-08 07:28:21 51°14.116 2°55.427 12.8 352 4.5 102520 91
2005-03-08 07:28:27 51°14.13 2°55.416 13 360 4.5 102520 91
2005-03-08 07:28:31 51°14.14 2°55.407 13.8 357 4.5 102510 91
2005-03-08 07:28:37 51°14.155 2°55.395 13.2 354 4.5 102510 91
2005-03-08 07:28:42 51°14.169 2°55.382 13.5 360 4.5 102510 91
2005-03-08 07:28:47 51°14.18 2°55.371 13.7 359 4.5 102510 91
2005-03-08 07:28:52 51°14.193 2°55.357 13.5 359 4.5 102540 91
2005-03-08 07:28:57 51°14.204 2°55.344 13.5 360 4.5 102540 91
2005-03-08 07:29:01 51°14.215 2°55.332 13.7 6 4.5 102540 91
2005-03-08 07:29:07 51°14.228 2°55.316 14.2 -999 4.5 102540 91
2005-03-08 07:29:11 51°14.237 2°55.304 14.6 2 4.5 102530 91
2005-03-08 07:29:17 51°14.251 2°55.285 12.8 4 4.5 102530 91
2005-03-08 07:29:21 51°14.261 2°55.27 13.8 7 4.5 102510 91
2005-03-08 07:29:27 51°14.273 2°55.251 13.8 5 4.5 102510 91
2005-03-08 07:29:32 51°14.283 2°55.233 13.9 5 4.4 102510 91
2005-03-08 07:29:37 51°14.294 2°55.215 13.3 9 4.4 102510 91
2005-03-08 07:29:41 51°14.303 2°55.197 14.4 9 4.4 102510 91
2005-03-08 07:29:47 51°14.314 2°55.176 13.8 9 4.4 102510 91
2005-03-08 07:29:51 51°14.322 2°55.16 14 9 4.4 102520 91
2005-03-08 07:29:57 51°14.333 2°55.136 13.4 7 4.4 102520 91
2005-03-08 07:30:02 51°14.342 2°55.116 13.1 11 4.4 102510 91
2005-03-08 07:30:07 51°14.352 2°55.096 13.6 14 4.4 102510 91
2005-03-08 07:30:11 51°14.359 2°55.08 14.5 10 4.4 102510 91
2005-03-08 07:30:17 51°14.371 2°55.055 14.7 10 4.4 102510 91
2005-03-08 07:30:22 51°14.381 2°55.035 14.7 7 4.4 102520 91
2005-03-08 07:30:26 51°14.391 2°55.017 13.3 6 4.4 102520 91
2005-03-08 07:30:31 51°14.402 2°54.998 14.3 6 4.4 102540 91
2005-03-08 07:30:37 51°14.415 2°54.976 13.8 4 4.4 102540 91
2005-03-08 07:30:42 51°14.426 2°54.959 13.5 6 4.4 102510 92
2005-03-08 07:30:47 51°14.437 2°54.941 14.1 6 4.4 102510 92
2005-03-08 07:30:51 51°14.448 2°54.923 15 7 4.4 102510 92
2005-03-08 07:30:57 51°14.462 2°54.903 15.1 4 4.4 102510 92
2005-03-08 07:31:01 51°14.473 2°54.886 14.4 5 4.4 102510 92
2005-03-08 07:31:06 51°14.486 2°54.867 13.7 5 4.4 102510 92
2005-03-08 07:31:11 51°14.497 2°54.85 15.9 2 4.4 102510 92
2005-03-08 07:31:17 51°14.513 2°54.826 14.9 1 4.4 102510 92
2005-03-08 07:31:21 51°14.524 2°54.808 15.6 5 4.4 102510 92
2005-03-08 07:31:27 51°14.538 2°54.785 14.3 3 4.4 102510 92
2005-03-08 07:31:32 51°14.55 2°54.764 15.3 6 4.4 102510 92
2005-03-08 07:31:37 51°14.562 2°54.744 14.7 6 4.4 102510 92
2005-03-08 07:31:41 51°14.574 2°54.725 14.1 4 4.4 102500 92
2005-03-08 07:31:47 51°14.587 2°54.703 15 6 4.4 102500 92
2005-03-08 07:31:52 51°14.6 2°54.681 15.2 4 4.4 102500 92
2005-03-08 07:31:57 51°14.613 2°54.66 15 3 4.4 102500 92
2005-03-08 07:32:01 51°14.623 2°54.642 16 4 4.3 102500 92
2005-03-08 07:32:07 51°14.637 2°54.619 16.1 3 4.3 102500 92
2005-03-08 07:32:12 51°14.65 2°54.597 16.5 7 4.4 102510 92
2005-03-08 07:32:17 51°14.662 2°54.576 16.4 5 4.4 102510 92
2005-03-08 07:32:21 51°14.673 2°54.557 14.5 6 4.3 102480 92
2005-03-08 07:32:27 51°14.686 2°54.533 14.6 6 4.3 102480 92
2005-03-08 07:32:31 51°14.697 2°54.514 14.9 3 4.3 102480 92
2005-03-08 07:32:37 51°14.712 2°54.489 15.3 4 4.3 102480 92
2005-03-08 07:32:41 51°14.722 2°54.472 14.8 6 4.3 102480 92
2005-03-08 07:32:47 51°14.736 2°54.448 16.6 4 4.3 102480 92
2005-03-08 07:32:51 51°14.746 2°54.432 14.8 7 4.3 102480 92
2005-03-08 07:32:57 51°14.76 2°54.406 15.9 1 4.3 102480 92
2005-03-08 07:33:01 51°14.772 2°54.387 14 6 4.3 102480 92
2005-03-08 07:33:07 51°14.785 2°54.363 15.4 4 4.3 102480 92
2005-03-08 07:33:11 51°14.796 2°54.343 15.4 5 4.3 102480 92
2005-03-08 07:33:17 51°14.81 2°54.321 15.7 5 4.3 102480 92
2005-03-08 07:33:21 51°14.821 2°54.302 15.6 7 4.3 102490 93
2005-03-08 07:33:27 51°14.835 2°54.279 15.7 6 4.3 102490 93
2005-03-08 07:33:31 51°14.846 2°54.26 16.4 4 4.3 102490 93
2005-03-08 07:33:37 51°14.86 2°54.236 15.8 5 4.3 102490 93
2005-03-08 07:33:41 51°14.87 2°54.217 15.3 3 4.4 102480 93
2005-03-08 07:33:47 51°14.883 2°54.193 15.1 5 4.4 102480 93
2005-03-08 07:33:51 51°14.892 2°54.174 15.7 9 4.3 102490 93
2005-03-08 07:33:57 51°14.905 2°54.147 15.5 7 4.3 102490 93
2005-03-08 07:34:01 51°14.915 2°54.126 15.5 9 4.4 102480 93
2005-03-08 07:34:07 51°14.926 2°54.102 16.7 11 4.4 102480 93
2005-03-08 07:34:10 51°14.934 2°54.085 15 5 4.4 102480 93
2005-03-08 07:34:17 51°14.949 2°54.054 16.2 8 4.4 102480 93
2005-03-08 07:34:21 51°14.957 2°54.035 16.5 8 4.4 102490 93
2005-03-08 07:34:27 51°14.97 2°54.007 16.1 6 4.4 102490 93
2005-03-08 07:34:31 51°14.98 2°53.986 15.4 8 4.3 102480 93
2005-03-08 07:34:37 51°14.992 2°53.961 16.2 7 4.3 102480 93
2005-03-08 07:34:41 51°15.002 2°53.94 16.1 8 4.3 102480 93
2005-03-08 07:34:47 51°15.014 2°53.914 16.6 7 4.3 102480 93
2005-03-08 07:34:51 51°15.023 2°53.896 16.1 6 4.4 102480 93
2005-03-08 07:34:57 51°15.036 2°53.868 14.9 9 4.4 102480 93
2005-03-08 07:35:01 51°15.045 2°53.849 15.4 5 4.4 102490 93
2005-03-08 07:35:07 51°15.058 2°53.823 14.1 6 4.4 102490 93
2005-03-08 07:35:11 51°15.067 2°53.804 15.4 2 4.4 102480 93
2005-03-08 07:35:17 51°15.083 2°53.774 14.4 6 4.4 102480 93
2005-03-08 07:35:22 51°15.093 2°53.754 16.4 4 4.4 102490 93
2005-03-08 07:35:26 51°15.104 2°53.734 16.5 7 4.4 102490 93
2005-03-08 07:35:31 51°15.115 2°53.711 15.4 8 4.4 102480 93
2005-03-08 07:35:36 51°15.126 2°53.689 15.1 10 4.4 102480 93
2005-03-08 07:35:41 51°15.137 2°53.667 16.7 6 4.4 102490 93
2005-03-08 07:35:47 51°15.149 2°53.64 15.9 7 4.4 102490 93
2005-03-08 07:35:52 51°15.159 2°53.617 15.8 8 4.4 102480 93
2005-03-08 07:35:57 51°15.168 2°53.591 15.8 12 4.4 102480 93
2005-03-08 07:36:01 51°15.176 2°53.569 15.5 10 4.4 102480 93
2005-03-08 07:36:07 51°15.185 2°53.54 15.8 12 4.4 102480 93
2005-03-08 07:36:11 51°15.191 2°53.519 15.2 14 4.4 102480 93
2005-03-08 07:36:17 51°15.199 2°53.486 13.5 15 4.4 102480 93
2005-03-08 07:36:21 51°15.205 2°53.461 16.1 15 4.4 102480 93
2005-03-08 07:36:26 51°15.212 2°53.432 15.9 17 4.4 102480 93
2005-03-08 07:36:32 51°15.218 2°53.401 15.6 17 4.4 102480 93
2005-03-08 07:36:37 51°15.224 2°53.372 16 17 4.4 102480 93
2005-03-08 07:36:41 51°15.229 2°53.347 15.9 17 4.4 102470 93
2005-03-08 07:36:47 51°15.235 2°53.315 16.2 18 4.4 102470 93
2005-03-08 07:36:52 51°15.24 2°53.286 15.2 18 4.4 102470 93
2005-03-08 07:36:57 51°15.245 2°53.257 14.5 15 4.4 102470 93
2005-03-08 07:37:01 51°15.25 2°53.23 14.4 19 4.4 102480 93
2005-03-08 07:37:06 51°15.255 2°53.202 14.5 17 4.4 102480 93
2005-03-08 07:37:12 51°15.261 2°53.169 15.2 14 4.4 102480 93
2005-03-08 07:37:17 51°15.266 2°53.142 15.2 14 4.4 102480 93
2005-03-08 07:37:21 51°15.272 2°53.116 16.5 15 4.4 102480 93
2005-03-08 07:37:27 51°15.278 2°53.084 15.3 18 4.4 102480 93
2005-03-08 07:37:32 51°15.284 2°53.056 16 17 4.4 102470 93
2005-03-08 07:37:37 51°15.289 2°53.027 15.2 19 4.4 102470 93
2005-03-08 07:37:42 51°15.294 2°52.995 14.8 21 4.3 102470 93
2005-03-08 07:37:47 51°15.297 2°52.968 15.4 20 4.3 102470 93
2005-03-08 07:37:52 51°15.301 2°52.936 13.3 23 4.4 102480 93
2005-03-08 07:37:57 51°15.303 2°52.909 15.5 23 4.4 102480 93
2005-03-08 07:38:01 51°15.305 2°52.882 15.4 19 4.4 102480 93
2005-03-08 07:38:07 51°15.308 2°52.849 15.3 21 4.4 102480 93
2005-03-08 07:38:12 51°15.31 2°52.816 14.5 20 4.4 102480 93
2005-03-08 07:38:17 51°15.312 2°52.789 13.9 22 4.4 102480 93
2005-03-08 07:38:21 51°15.314 2°52.762 15.3 22 4.4 102470 93
2005-03-08 07:38:27 51°15.317 2°52.729 14.8 23 4.4 102470 93
2005-03-08 07:38:31 51°15.319 2°52.702 15.4 21 4.4 102470 93
2005-03-08 07:38:37 51°15.321 2°52.67 15.8 26 4.4 102470 93
2005-03-08 07:38:41 51°15.323 2°52.643 14.5 20 4.4 102470 93
2005-03-08 07:38:47 51°15.326 2°52.61 16.1 25 4.4 102470 93
2005-03-08 07:38:52 51°15.328 2°52.581 15.1 20 4.4 102470 93
2005-03-08 07:38:57 51°15.331 2°52.547 15.5 22 4.4 102470 93
2005-03-08 07:39:01 51°15.333 2°52.523 16.1 21 4.4 102470 93
2005-03-08 07:39:07 51°15.335 2°52.491 14.5 24 4.4 102470 93
2005-03-08 07:39:11 51°15.337 2°52.463 14.5 26 4.3 102470 93
2005-03-08 07:39:17 51°15.339 2°52.431 15.7 22 4.3 102470 93
2005-03-08 07:39:21 51°15.341 2°52.404 15.4 24 4.4 102480 93
2005-03-08 07:39:27 51°15.343 2°52.37 16.6 22 4.4 102480 93
2005-03-08 07:39:31 51°15.345 2°52.344 15.5 22 4.4 102480 93
2005-03-08 07:39:37 51°15.348 2°52.308 15.8 22 4.4 102480 93
2005-03-08 07:39:42 51°15.35 2°52.278 14.9 24 4.4 102470 93
2005-03-08 07:39:47 51°15.351 2°52.252 15.6 21 4.4 102470 93
2005-03-08 07:39:51 51°15.353 2°52.228 15.8 23 4.4 102470 93
2005-03-08 07:39:57 51°15.356 2°52.192 15.2 20 4.4 102470 93
2005-03-08 07:40:01 51°15.358 2°52.165 17 23 4.4 102470 93
2005-03-08 07:40:07 51°15.36 2°52.133 15.6 23 4.4 102470 93
2005-03-08 07:40:11 51°15.362 2°52.109 15.6 27 4.4 102470 93
2005-03-08 07:40:17 51°15.364 2°52.07 16.4 23 4.4 102470 93
2005-03-08 07:40:22 51°15.366 2°52.044 16.9 26 4.4 102460 94
2005-03-08 07:40:27 51°15.368 2°52.014 15.2 24 4.4 102460 94
2005-03-08 07:40:32 51°15.371 2°51.984 15.8 23 4.3 102470 94
2005-03-08 07:40:37 51°15.373 2°51.952 15.7 23 4.3 102470 94
2005-03-08 07:40:42 51°15.375 2°51.925 15.9 24 4.4 102480 94
2005-03-08 07:40:47 51°15.378 2°51.896 16 28 4.4 102480 94
2005-03-08 07:40:51 51°15.379 2°51.869 14.8 25 4.4 102470 94
2005-03-08 07:40:57 51°15.381 2°51.837 15.3 28 4.4 102470 94
2005-03-08 07:41:01 51°15.382 2°51.813 15 28 4.4 102470 94
2005-03-08 07:41:07 51°15.382 2°51.778 14.3 26 4.4 102470 94
2005-03-08 07:41:12 51°15.381 2°51.749 15.8 25 4.4 102470 94
2005-03-08 07:41:17 51°15.381 2°51.716 16 33 4.4 102470 94
2005-03-08 07:41:21 51°15.38 2°51.692 14.8 33 4.4 102470 94
2005-03-08 07:41:27 51°15.378 2°51.66 15.3 34 4.4 102470 94
2005-03-08 07:41:32 51°15.375 2°51.626 14.4 30 4.4 102460 93
2005-03-08 07:41:37 51°15.374 2°51.597 15.2 33 4.4 102460 93
2005-03-08 07:41:42 51°15.371 2°51.57 15.9 31 4.4 102460 93
2005-03-08 07:41:47 51°15.369 2°51.54 14.9 34 4.4 102460 93
2005-03-08 07:41:51 51°15.367 2°51.516 15.6 37 4.4 102460 93
2005-03-08 07:41:57 51°15.363 2°51.477 15.3 38 4.4 102460 93
2005-03-08 07:42:01 51°15.362 2°51.453 15.7 36 4.4 102460 93
2005-03-08 07:42:07 51°15.358 2°51.42 14.9 33 4.4 102460 93
2005-03-08 07:42:11 51°15.357 2°51.396 14.7 29 4.4 102470 93
2005-03-08 07:42:17 51°15.354 2°51.358 15.2 40 4.4 102470 93
2005-03-08 07:42:22 51°15.351 2°51.331 15.7 33 4.4 102460 93
2005-03-08 07:42:27 51°15.35 2°51.302 14.6 35 4.4 102460 93
2005-03-08 07:42:32 51°15.347 2°51.269 15.5 34 4.4 102470 93
2005-03-08 07:42:37 51°15.344 2°51.242 15.1 32 4.4 102470 93
2005-03-08 07:42:42 51°15.342 2°51.21 15.2 35 4.4 102470 93
2005-03-08 07:42:47 51°15.339 2°51.183 14.4 30 4.4 102470 93
2005-03-08 07:42:52 51°15.337 2°51.152 14.8 33 4.4 102460 93
2005-03-08 07:42:57 51°15.334 2°51.124 12.9 34 4.4 102460 93
2005-03-08 07:43:01 51°15.332 2°51.096 14.4 35 4.4 102470 93
2005-03-08 07:43:07 51°15.328 2°51.063 15.1 34 4.4 102470 93
2005-03-08 07:43:12 51°15.326 2°51.031 14.7 37 4.4 102470 93
2005-03-08 07:43:17 51°15.322 2°51.004 14.9 -999 4.4 102470 93
2005-03-08 07:43:21 51°15.318 2°50.978 15.4 36 4.4 102480 93
2005-03-08 07:43:27 51°15.314 2°50.945 14.7 31 4.4 102480 93
2005-03-08 07:43:31 51°15.31 2°50.922 14.9 40 4.4 102470 93
2005-03-08 07:43:37 51°15.306 2°50.887 14.6 35 4.4 102470 93
2005-03-08 07:43:41 51°15.301 2°50.861 14.3 38 4.4 102470 93
2005-03-08 07:43:47 51°15.297 2°50.828 15.2 34 4.4 102470 93
2005-03-08 07:43:51 51°15.293 2°50.802 16 44 4.4 102470 93
2005-03-08 07:43:57 51°15.288 2°50.768 14.5 35 4.4 102470 93
2005-03-08 07:44:02 51°15.284 2°50.741 15.6 37 4.4 102470 93
2005-03-08 07:44:06 51°15.281 2°50.714 14.9 39 4.4 102470 93
2005-03-08 07:44:11 51°15.276 2°50.688 15.1 35 4.4 102470 93
2005-03-08 07:44:17 51°15.272 2°50.653 15.2 -999 4.4 102470 93
2005-03-08 07:44:22 51°15.266 2°50.621 14.9 41 4.4 102480 93
2005-03-08 07:44:27 51°15.263 2°50.595 14.4 34 4.4 102480 93
2005-03-08 07:44:30 51°15.26 2°50.574 15.1 38 4.4 102470 93
2005-03-08 07:44:37 51°15.254 2°50.536 15.8 39 4.4 102470 93
2005-03-08 07:44:42 51°15.25 2°50.504 13.8 38 4.4 102460 93
2005-03-08 07:44:47 51°15.245 2°50.478 14.4 36 4.4 102460 93
2005-03-08 07:44:51 51°15.243 2°50.453 14.1 34 4.4 102470 93
2005-03-08 07:44:57 51°15.237 2°50.416 15.9 37 4.4 102470 93
2005-03-08 07:45:01 51°15.234 2°50.395 13.8 35 4.4 102470 93
2005-03-08 07:45:07 51°15.229 2°50.36 13.8 39 4.4 102470 93
2005-03-08 07:45:11 51°15.225 2°50.333 13.5 34 4.4 102470 93
2005-03-08 07:45:17 51°15.221 2°50.302 14.7 35 4.4 102470 93
2005-03-08 07:45:22 51°15.216 2°50.272 13.7 36 4.4 102470 93
2005-03-08 07:45:27 51°15.212 2°50.243 14.4 40 4.4 102470 93
2005-03-08 07:45:32 51°15.207 2°50.214 13.9 33 4.4 102470 93
2005-03-08 07:45:37 51°15.203 2°50.185 14.6 35 4.4 102470 93
2005-03-08 07:45:41 51°15.199 2°50.159 14.3 36 4.5 102470 93
2005-03-08 07:45:47 51°15.195 2°50.127 13.8 42 4.5 102470 93
2005-03-08 07:45:52 51°15.19 2°50.098 14.4 37 4.4 102470 93
2005-03-08 07:45:57 51°15.187 2°50.068 14.2 38 4.4 102470 93
2005-03-08 07:46:01 51°15.183 2°50.046 13.3 39 4.4 102480 93
2005-03-08 07:46:07 51°15.178 2°50.011 14 37 4.4 102480 93
2005-03-08 07:46:11 51°15.176 2°49.987 13.6 34 4.4 102480 93
2005-03-08 07:46:17 51°15.17 2°49.949 13.8 -999 4.4 102480 93
2005-03-08 07:46:22 51°15.166 2°49.922 14.7 37 4.4 102480 93
2005-03-08 07:46:26 51°15.163 2°49.896 14.7 37 4.4 102480 93
2005-03-08 07:46:32 51°15.158 2°49.863 14.6 41 4.4 102480 93
2005-03-08 07:46:37 51°15.155 2°49.834 14.6 36 4.4 102480 93
2005-03-08 07:46:41 51°15.15 2°49.808 13.5 35 4.4 102490 93
2005-03-08 07:46:46 51°15.148 2°49.779 13.3 32 4.4 102490 93
2005-03-08 07:46:52 51°15.142 2°49.747 15.4 39 4.4 102470 93
2005-03-08 07:46:57 51°15.138 2°49.717 13.3 35 4.4 102470 93
2005-03-08 07:47:01 51°15.134 2°49.691 13 37 4.4 102470 93
2005-03-08 07:47:07 51°15.131 2°49.658 13.6 31 4.4 102470 93
2005-03-08 07:47:12 51°15.126 2°49.629 13.8 34 4.4 102470 93
2005-03-08 07:47:16 51°15.123 2°49.602 14.7 -999 4.4 102470 93
2005-03-08 07:47:21 51°15.12 2°49.572 12.5 31 4.4 102480 93
2005-03-08 07:47:26 51°15.115 2°49.543 13.1 35 4.4 102480 93
2005-03-08 07:47:31 51°15.112 2°49.516 14.5 41 4.4 102480 93
2005-03-08 07:47:37 51°15.107 2°49.481 13.9 34 4.4 102480 93
2005-03-08 07:47:41 51°15.103 2°49.454 14.5 34 4.4 102480 93
2005-03-08 07:47:47 51°15.099 2°49.423 13 33 4.4 102480 93
2005-03-08 07:47:52 51°15.095 2°49.39 15.7 36 4.4 102480 93
2005-03-08 07:47:57 51°15.092 2°49.364 13.6 32 4.4 102480 93
2005-03-08 07:48:01 51°15.088 2°49.337 13.5 34 4.4 102480 93
2005-03-08 07:48:07 51°15.083 2°49.301 15 36 4.4 102480 93
2005-03-08 07:48:12 51°15.079 2°49.272 13.9 34 4.4 102480 93
2005-03-08 07:48:17 51°15.075 2°49.243 13.7 -999 4.4 102480 93
2005-03-08 07:48:22 51°15.071 2°49.216 14.1 38 4.4 102480 93
2005-03-08 07:48:27 51°15.067 2°49.187 13.3 29 4.4 102480 93
2005-03-08 07:48:32 51°15.063 2°49.155 14.1 36 4.4 102540 93
2005-03-08 07:48:37 51°15.059 2°49.128 14.3 36 4.4 102540 93
2005-03-08 07:48:41 51°15.056 2°49.105 13.6 34 4.4 102480 93
2005-03-08 07:48:47 51°15.051 2°49.069 14 27 4.4 102480 93
2005-03-08 07:48:51 51°15.048 2°49.042 14.1 39 4.4 102490 93
2005-03-08 07:48:57 51°15.043 2°49.008 14.1 34 4.4 102490 93
2005-03-08 07:49:02 51°15.04 2°48.981 14.3 37 4.4 102480 93
2005-03-08 07:49:07 51°15.036 2°48.95 14.7 34 4.4 102480 93
2005-03-08 07:49:11 51°15.034 2°48.927 14 31 4.4 102490 93
2005-03-08 07:49:17 51°15.028 2°48.892 14.7 -999 4.4 102490 93
2005-03-08 07:49:22 51°15.024 2°48.86 14.7 35 4.4 102480 93
2005-03-08 07:49:27 51°15.02 2°48.832 14.1 31 4.4 102480 93
2005-03-08 07:49:32 51°15.016 2°48.804 14 35 4.4 102480 93
2005-03-08 07:49:37 51°15.013 2°48.774 14 37 4.4 102480 93
2005-03-08 07:49:41 51°15.008 2°48.748 14.5 40 4.4 102540 93
2005-03-08 07:49:47 51°15.005 2°48.716 13.8 33 4.4 102540 93
2005-03-08 07:49:52 51°15.001 2°48.686 14.2 38 4.4 102480 93
2005-03-08 07:49:57 51°14.996 2°48.658 13.2 33 4.4 102480 93
2005-03-08 07:50:01 51°14.993 2°48.631 14 31 4.4 102480 93
2005-03-08 07:50:07 51°14.987 2°48.598 14 39 4.4 102480 93
2005-03-08 07:50:11 51°14.985 2°48.574 13.2 36 4.4 102480 93
2005-03-08 07:50:17 51°14.979 2°48.537 15.2 -999 4.4 102480 93
2005-03-08 07:50:21 51°14.976 2°48.513 13.4 39 4.4 102480 93
2005-03-08 07:50:27 51°14.971 2°48.481 13.9 36 4.4 102480 93
2005-03-08 07:50:31 51°14.968 2°48.457 14.3 35 4.4 102490 93
2005-03-08 07:50:36 51°14.964 2°48.425 13.3 37 4.4 102490 93
2005-03-08 07:50:42 51°14.96 2°48.392 14.7 39 4.4 102480 93
2005-03-08 07:50:47 51°14.956 2°48.364 13.2 32 4.4 102480 93
2005-03-08 07:50:51 51°14.953 2°48.34 14.5 39 4.4 102480 93
2005-03-08 07:50:57 51°14.948 2°48.305 12.9 32 4.4 102480 93
2005-03-08 07:51:01 51°14.945 2°48.278 14.9 39 4.4 102480 93
2005-03-08 07:51:07 51°14.94 2°48.247 13 35 4.4 102480 93
2005-03-08 07:51:12 51°14.937 2°48.215 14.1 32 4.4 102490 93
2005-03-08 07:51:17 51°14.933 2°48.187 13.7 -999 4.4 102490 93
2005-03-08 07:51:21 51°14.929 2°48.161 13.6 33 4.4 102480 93
2005-03-08 07:51:27 51°14.925 2°48.129 15.4 36 4.4 102480 93
2005-03-08 07:51:31 51°14.922 2°48.102 13.6 39 4.4 102480 93
2005-03-08 07:51:37 51°14.917 2°48.072 13.3 35 4.4 102480 93
2005-03-08 07:51:42 51°14.913 2°48.042 13.2 35 4.4 102480 93
2005-03-08 07:51:46 51°14.91 2°48.016 14.3 40 4.4 102480 93
2005-03-08 07:51:52 51°14.906 2°47.983 13.8 37 4.4 102490 93
2005-03-08 07:51:57 51°14.901 2°47.955 13.2 34 4.4 102490 93
2005-03-08 07:52:02 51°14.899 2°47.925 13.3 27 4.4 102480 93
2005-03-08 07:52:07 51°14.894 2°47.896 15 33 4.4 102480 93
2005-03-08 07:52:12 51°14.89 2°47.867 14.4 31 4.4 102490 93
2005-03-08 07:52:17 51°14.887 2°47.835 13.8 -999 4.4 102490 93
2005-03-08 07:52:21 51°14.883 2°47.812 15.3 39 4.4 102480 93
2005-03-08 07:52:27 51°14.879 2°47.779 14.5 31 4.4 102480 93
2005-03-08 07:52:31 51°14.876 2°47.753 14.5 40 4.4 102480 93
2005-03-08 07:52:37 51°14.872 2°47.721 14.8 35 4.4 102480 93
2005-03-08 07:52:41 51°14.869 2°47.695 14.3 34 4.4 102480 93
2005-03-08 07:52:47 51°14.865 2°47.663 13.9 37 4.4 102480 93
2005-03-08 07:52:52 51°14.861 2°47.633 14 36 4.4 102490 93
2005-03-08 07:52:57 51°14.856 2°47.602 14.3 39 4.4 102490 93
2005-03-08 07:53:01 51°14.853 2°47.579 14.4 30 4.4 102480 93
2005-03-08 07:53:07 51°14.849 2°47.546 15.1 38 4.4 102480 93
2005-03-08 07:53:11 51°14.844 2°47.524 14.4 34 4.4 102490 93
2005-03-08 07:53:17 51°14.84 2°47.488 15.3 -999 4.4 102490 93
2005-03-08 07:53:21 51°14.838 2°47.464 13.8 30 4.4 102490 93
2005-03-08 07:53:27 51°14.832 2°47.43 13.1 31 4.4 102490 93
2005-03-08 07:53:32 51°14.828 2°47.4 13.7 35 4.4 102480 93
2005-03-08 07:53:37 51°14.824 2°47.372 14.4 35 4.4 102480 93
2005-03-08 07:53:41 51°14.821 2°47.345 14.8 37 4.4 102480 93
2005-03-08 07:53:47 51°14.816 2°47.309 14 33 4.4 102480 93
2005-03-08 07:53:51 51°14.814 2°47.289 15.2 34 4.4 102480 92
2005-03-08 07:53:57 51°14.81 2°47.254 13.8 34 4.4 102480 92
2005-03-08 07:54:01 51°14.806 2°47.228 14.3 35 4.5 102480 92
2005-03-08 07:54:07 51°14.803 2°47.195 14.2 40 4.5 102480 92
2005-03-08 07:54:12 51°14.798 2°47.167 14.3 33 4.4 102490 93
2005-03-08 07:54:17 51°14.794 2°47.135 14.4 -999 4.4 102490 93
2005-03-08 07:54:22 51°14.79 2°47.109 13.4 32 4.4 102480 92
2005-03-08 07:54:27 51°14.785 2°47.079 14.7 35 4.4 102480 92
2005-03-08 07:54:32 51°14.781 2°47.048 14.5 37 4.4 102480 92
2005-03-08 07:54:37 51°14.775 2°47.022 14.1 31 4.4 102480 92
2005-03-08 07:54:41 51°14.773 2°46.996 14.2 33 4.4 102480 93
2005-03-08 07:54:47 51°14.769 2°46.963 13.6 37 4.4 102480 93
2005-03-08 07:54:52 51°14.765 2°46.936 14.9 33 4.5 102480 92
2005-03-08 07:54:57 51°14.76 2°46.905 15.2 27 4.5 102480 92
2005-03-08 07:55:01 51°14.758 2°46.879 14.1 36 4.5 102490 92
2005-03-08 07:55:07 51°14.752 2°46.847 13.8 33 4.5 102490 92
2005-03-08 07:55:12 51°14.748 2°46.815 15.9 38 4.4 102490 92
2005-03-08 07:55:17 51°14.746 2°46.79 14.9 36 4.4 102490 92
2005-03-08 07:55:21 51°14.741 2°46.763 14.3 34 4.4 102480 93
2005-03-08 07:55:27 51°14.738 2°46.731 13.5 37 4.4 102480 93
2005-03-08 07:55:32 51°14.733 2°46.702 13.5 31 4.5 102480 93
2005-03-08 07:55:37 51°14.73 2°46.672 15.2 38 4.5 102480 93
2005-03-08 07:55:42 51°14.726 2°46.644 14.5 35 4.5 102480 93
2005-03-08 07:55:47 51°14.722 2°46.613 15.1 37 4.5 102480 93
2005-03-08 07:55:52 51°14.719 2°46.584 14.7 37 4.4 102480 93
2005-03-08 07:55:57 51°14.715 2°46.553 14.3 35 4.4 102480 93
2005-03-08 07:56:01 51°14.711 2°46.53 14.3 37 4.5 102520 93
2005-03-08 07:56:07 51°14.707 2°46.497 13.4 37 4.5 102520 93
2005-03-08 07:56:12 51°14.702 2°46.466 14.5 36 4.5 102530 93
2005-03-08 07:56:17 51°14.699 2°46.44 13.7 -999 4.5 102530 93
2005-03-08 07:56:22 51°14.695 2°46.407 12.8 34 4.4 102520 93
2005-03-08 07:56:27 51°14.691 2°46.381 14.5 36 4.4 102520 93
2005-03-08 07:56:30 51°14.689 2°46.361 13.7 35 4.5 102520 93
2005-03-08 07:56:37 51°14.683 2°46.32 13.9 31 4.5 102520 93
2005-03-08 07:56:41 51°14.681 2°46.297 13.3 35 4.5 102540 93
2005-03-08 07:56:47 51°14.676 2°46.265 13.2 33 4.5 102540 93
2005-03-08 07:56:51 51°14.673 2°46.242 14.3 38 4.5 102530 93
2005-03-08 07:56:57 51°14.668 2°46.205 15 35 4.5 102530 93
2005-03-08 07:57:01 51°14.665 2°46.182 14.2 35 4.5 102540 93
2005-03-08 07:57:07 51°14.661 2°46.149 14.7 36 4.5 102540 93
2005-03-08 07:57:12 51°14.657 2°46.122 14.5 35 4.5 102540 93
2005-03-08 07:57:17 51°14.652 2°46.092 13.8 -999 4.5 102540 93
2005-03-08 07:57:21 51°14.649 2°46.069 14.2 35 4.5 102530 93
2005-03-08 07:57:27 51°14.646 2°46.036 13.4 36 4.5 102530 93
2005-03-08 07:57:32 51°14.64 2°46.004 15.2 36 4.5 102530 93
2005-03-08 07:57:37 51°14.637 2°45.977 14.7 38 4.5 102530 93
2005-03-08 07:57:41 51°14.634 2°45.953 14.7 32 4.5 102520 93
2005-03-08 07:57:47 51°14.629 2°45.921 14.9 35 4.5 102520 93
2005-03-08 07:57:52 51°14.625 2°45.892 15.3 35 4.5 102530 93
2005-03-08 07:57:57 51°14.621 2°45.861 14.6 33 4.5 102530 93
2005-03-08 07:58:01 51°14.618 2°45.838 14.1 36 4.5 102520 93
2005-03-08 07:58:07 51°14.614 2°45.806 14.4 37 4.5 102520 93
2005-03-08 07:58:11 51°14.61 2°45.78 15.4 39 4.5 102540 93
2005-03-08 07:58:17 51°14.606 2°45.749 14 36 4.5 102540 93
2005-03-08 07:58:21 51°14.603 2°45.723 13.8 35 4.5 102510 93
2005-03-08 07:58:27 51°14.599 2°45.692 13.6 33 4.5 102510 93
2005-03-08 07:58:31 51°14.595 2°45.665 15.8 40 4.5 102480 93
2005-03-08 07:58:37 51°14.591 2°45.632 15.1 39 4.5 102480 93
2005-03-08 07:58:41 51°14.588 2°45.608 15.2 34 4.5 102480 93
2005-03-08 07:58:47 51°14.584 2°45.575 15.3 37 4.5 102480 93
2005-03-08 07:58:51 51°14.58 2°45.549 14.8 35 4.5 102480 93
2005-03-08 07:58:57 51°14.575 2°45.515 15.3 37 4.5 102480 93
2005-03-08 07:59:01 51°14.572 2°45.492 14.8 36 4.5 102480 93
2005-03-08 07:59:07 51°14.568 2°45.459 14.7 39 4.5 102480 93
2005-03-08 07:59:11 51°14.563 2°45.433 15.4 38 4.5 102480 93
2005-03-08 07:59:17 51°14.559 2°45.401 13.9 32 4.5 102480 93
2005-03-08 07:59:21 51°14.556 2°45.375 14 37 4.5 102480 93
2005-03-08 07:59:27 51°14.552 2°45.342 15.4 36 4.5 102480 93
2005-03-08 07:59:31 51°14.549 2°45.318 14.1 35 4.5 102470 93
2005-03-08 07:59:37 51°14.545 2°45.283 14.9 34 4.5 102470 93
2005-03-08 07:59:41 51°14.542 2°45.259 15.8 36 4.5 102480 92
2005-03-08 07:59:47 51°14.538 2°45.223 15.1 32 4.5 102480 92
2005-03-08 07:59:51 51°14.536 2°45.195 14.8 31 4.5 102480 92
2005-03-08 07:59:57 51°14.532 2°45.163 14.7 38 4.5 102480 92
2005-03-08 08:00:02 51°14.528 2°45.13 14.2 30 4.5 102470 92
2005-03-08 08:00:07 51°14.526 2°45.103 15.3 32 4.5 102470 92
2005-03-08 08:00:11 51°14.523 2°45.075 14.4 38 4.5 102480 92
2005-03-08 08:00:17 51°14.518 2°45.04 16.2 31 4.5 102480 92
2005-03-08 08:00:21 51°14.517 2°45.019 15.2 32 4.5 102480 92
2005-03-08 08:00:27 51°14.513 2°44.982 15.8 31 4.5 102480 92
2005-03-08 08:00:31 51°14.512 2°44.96 15.7 32 4.5 102480 92
2005-03-08 08:00:37 51°14.509 2°44.922 15.3 33 4.5 102480 92
2005-03-08 08:00:41 51°14.507 2°44.896 14.8 33 4.5 102480 92
2005-03-08 08:00:47 51°14.504 2°44.864 13.6 30 4.5 102480 92
2005-03-08 08:00:51 51°14.502 2°44.835 14.5 36 4.5 102490 92
2005-03-08 08:00:57 51°14.499 2°44.802 15.3 33 4.5 102490 92
2005-03-08 08:01:01 51°14.498 2°44.777 15.4 33 4.5 102480 92
2005-03-08 08:01:07 51°14.495 2°44.743 15.5 32 4.5 102480 92
2005-03-08 08:01:11 51°14.494 2°44.716 13.9 31 4.5 102490 92
2005-03-08 08:01:17 51°14.492 2°44.684 15.6 38 4.5 102490 92
2005-03-08 08:01:21 51°14.489 2°44.657 15.6 34 4.5 102490 92
2005-03-08 08:01:26 51°14.489 2°44.627 14.2 33 4.5 102490 92
2005-03-08 08:01:31 51°14.486 2°44.6 16 35 4.5 102490 92
2005-03-08 08:01:37 51°14.485 2°44.565 14.2 33 4.5 102490 92
2005-03-08 08:01:42 51°14.482 2°44.535 14.3 31 4.5 102480 92
2005-03-08 08:01:47 51°14.481 2°44.504 15.3 34 4.5 102480 92
2005-03-08 08:01:51 51°14.478 2°44.477 14.9 30 4.5 102480 92
2005-03-08 08:01:57 51°14.477 2°44.442 13.5 33 4.5 102480 92
2005-03-08 08:02:01 51°14.475 2°44.418 14.8 34 4.5 102480 92
2005-03-08 08:02:07 51°14.472 2°44.385 14.5 31 4.5 102480 92
2005-03-08 08:02:11 51°14.471 2°44.361 13.4 32 4.5 102490 92
2005-03-08 08:02:17 51°14.468 2°44.322 14 31 4.5 102490 92
2005-03-08 08:02:21 51°14.467 2°44.298 14.7 33 4.5 102490 92
2005-03-08 08:02:27 51°14.464 2°44.265 14.5 29 4.5 102490 92
2005-03-08 08:02:32 51°14.462 2°44.235 15.6 36 4.5 102490 92
2005-03-08 08:02:37 51°14.461 2°44.205 13.9 32 4.5 102490 92
2005-03-08 08:02:41 51°14.458 2°44.178 15.1 29 4.5 102490 92
2005-03-08 08:02:47 51°14.457 2°44.145 15.1 37 4.5 102490 92
2005-03-08 08:02:52 51°14.452 2°44.114 15 35 4.5 102490 92
2005-03-08 08:02:57 51°14.453 2°44.084 15.4 38 4.5 102490 92
2005-03-08 08:03:01 51°14.449 2°44.058 14.1 35 4.5 102490 92
2005-03-08 08:03:07 51°14.447 2°44.024 15.6 32 4.5 102490 92
2005-03-08 08:03:11 51°14.446 2°44 14.6 36 4.5 102480 92
2005-03-08 08:03:17 51°14.443 2°43.964 15.6 33 4.5 102480 92
2005-03-08 08:03:21 51°14.442 2°43.937 15.4 32 4.5 102480 92
2005-03-08 08:03:27 51°14.439 2°43.904 14.5 33 4.5 102480 92
2005-03-08 08:03:31 51°14.437 2°43.88 15 32 4.5 102480 92
2005-03-08 08:03:37 51°14.435 2°43.843 15.2 34 4.5 102480 92
2005-03-08 08:03:41 51°14.433 2°43.816 14.6 31 4.6 102480 92
2005-03-08 08:03:47 51°14.431 2°43.784 14.3 35 4.6 102480 92
2005-03-08 08:03:50 51°14.428 2°43.762 15.4 35 4.5 102490 92
2005-03-08 08:03:57 51°14.426 2°43.723 14.5 31 4.5 102490 92
2005-03-08 08:04:02 51°14.424 2°43.693 14.9 28 4.5 102490 92
2005-03-08 08:04:07 51°14.421 2°43.662 15.5 32 4.5 102490 92
2005-03-08 08:04:11 51°14.42 2°43.635 13.9 35 4.5 102480 92
2005-03-08 08:04:17 51°14.418 2°43.603 14.6 36 4.5 102480 92
2005-03-08 08:04:22 51°14.415 2°43.572 15.2 34 4.5 102480 92
2005-03-08 08:04:27 51°14.414 2°43.543 13.9 31 4.5 102480 92
2005-03-08 08:04:31 51°14.411 2°43.516 14.1 34 4.5 102490 92
2005-03-08 08:04:37 51°14.409 2°43.481 13.7 35 4.5 102490 92
2005-03-08 08:04:41 51°14.407 2°43.457 14.9 33 4.6 102490 92
2005-03-08 08:04:47 51°14.404 2°43.424 13.6 32 4.6 102490 92
2005-03-08 08:04:51 51°14.402 2°43.397 13.2 34 4.5 102480 92
2005-03-08 08:04:57 51°14.398 2°43.363 14.9 32 4.5 102480 92
2005-03-08 08:05:01 51°14.395 2°43.34 14.5 36 4.5 102490 92
2005-03-08 08:05:06 51°14.394 2°43.31 14.3 31 4.5 102490 92
2005-03-08 08:05:11 51°14.391 2°43.28 14 35 4.5 102480 92
2005-03-08 08:05:17 51°14.389 2°43.246 13.5 30 4.5 102480 92
2005-03-08 08:05:21 51°14.388 2°43.222 16 33 4.5 102490 92
2005-03-08 08:05:27 51°14.385 2°43.188 14.3 34 4.5 102490 92
2005-03-08 08:05:32 51°14.384 2°43.159 15.2 33 4.5 102490 92
2005-03-08 08:05:37 51°14.382 2°43.13 16.3 36 4.5 102490 92
2005-03-08 08:05:42 51°14.38 2°43.098 14.7 32 4.5 102490 92
2005-03-08 08:05:47 51°14.379 2°43.071 15.6 33 4.5 102490 92
2005-03-08 08:05:52 51°14.376 2°43.041 15.8 35 4.6 102490 92
2005-03-08 08:05:57 51°14.375 2°43.012 14.3 33 4.6 102490 92
2005-03-08 08:06:01 51°14.373 2°42.985 15.5 32 4.5 102480 92
2005-03-08 08:06:07 51°14.37 2°42.951 15.3 36 4.5 102480 92
2005-03-08 08:06:12 51°14.368 2°42.92 14.6 36 4.5 102490 92
2005-03-08 08:06:17 51°14.366 2°42.894 15.5 40 4.5 102490 92
2005-03-08 08:06:21 51°14.364 2°42.867 14.1 37 4.5 102490 92
2005-03-08 08:06:27 51°14.361 2°42.834 14.3 36 4.5 102490 92
2005-03-08 08:06:31 51°14.359 2°42.807 15.1 34 4.5 102490 92
2005-03-08 08:06:37 51°14.355 2°42.774 14.9 35 4.5 102490 92
2005-03-08 08:06:41 51°14.354 2°42.75 14.7 34 4.5 102480 92
2005-03-08 08:06:47 51°14.352 2°42.712 13.7 33 4.5 102480 92
2005-03-08 08:06:51 51°14.351 2°42.688 14.3 35 4.5 102490 92
2005-03-08 08:06:57 51°14.349 2°42.656 14 31 4.5 102490 92
2005-03-08 08:07:01 51°14.348 2°42.63 14.3 31 4.5 102480 92
2005-03-08 08:07:07 51°14.347 2°42.596 14.5 32 4.5 102480 92
2005-03-08 08:07:11 51°14.345 2°42.573 14.9 34 4.5 102480 92
2005-03-08 08:07:17 51°14.344 2°42.535 14.4 32 4.5 102480 92
2005-03-08 08:07:22 51°14.342 2°42.509 14.2 34 4.5 102490 92
2005-03-08 08:07:27 51°14.341 2°42.478 15.4 35 4.5 102490 92
2005-03-08 08:07:31 51°14.34 2°42.455 15.5 34 4.5 102490 92
2005-03-08 08:07:37 51°14.339 2°42.42 14 35 4.5 102490 92
2005-03-08 08:07:41 51°14.338 2°42.393 14.2 30 4.5 102490 92
2005-03-08 08:07:47 51°14.337 2°42.36 14.9 29 4.5 102490 92
2005-03-08 08:07:51 51°14.337 2°42.336 14 27 4.5 102480 92
2005-03-08 08:07:57 51°14.335 2°42.301 14.5 31 4.5 102480 92
2005-03-08 08:08:01 51°14.334 2°42.274 14.2 32 4.6 102480 92
2005-03-08 08:08:07 51°14.333 2°42.242 13.6 37 4.6 102480 92
2005-03-08 08:08:11 51°14.331 2°42.215 14.6 31 4.5 102480 92
2005-03-08 08:08:17 51°14.33 2°42.183 14.4 33 4.5 102480 92
2005-03-08 08:08:21 51°14.329 2°42.156 13.8 32 4.4 102490 92
2005-03-08 08:08:27 51°14.328 2°42.12 14.4 33 4.4 102490 92
2005-03-08 08:08:31 51°14.327 2°42.096 13.5 32 4.5 102480 92
2005-03-08 08:08:37 51°14.326 2°42.065 14.3 35 4.5 102480 92
2005-03-08 08:08:41 51°14.325 2°42.038 14.3 33 4.5 102480 92
2005-03-08 08:08:47 51°14.324 2°42.006 15.1 33 4.5 102480 92
2005-03-08 08:08:52 51°14.323 2°41.973 15.6 32 4.5 102490 92
2005-03-08 08:08:57 51°14.321 2°41.946 14.8 34 4.5 102490 92
2005-03-08 08:09:01 51°14.321 2°41.92 13.9 32 4.5 102480 92
2005-03-08 08:09:06 51°14.319 2°41.891 13.4 36 4.5 102480 92
2005-03-08 08:09:11 51°14.317 2°41.861 14.2 37 4.5 102490 93
2005-03-08 08:09:17 51°14.317 2°41.826 15 36 4.5 102490 93
2005-03-08 08:09:21 51°14.315 2°41.803 15.4 39 4.5 102490 93
2005-03-08 08:09:27 51°14.314 2°41.77 14.3 29 4.5 102490 93
2005-03-08 08:09:31 51°14.313 2°41.747 15 31 4.5 102490 93
2005-03-08 08:09:37 51°14.312 2°41.711 14 32 4.5 102490 93
2005-03-08 08:09:41 51°14.31 2°41.685 14.2 32 4.5 102480 93
2005-03-08 08:09:47 51°14.309 2°41.653 14.8 31 4.5 102480 93
2005-03-08 08:09:52 51°14.307 2°41.621 15.1 34 4.5 102490 93
2005-03-08 08:09:57 51°14.306 2°41.595 14.3 28 4.5 102490 93
2005-03-08 08:10:01 51°14.304 2°41.569 15.4 38 4.5 102490 93
2005-03-08 08:10:07 51°14.302 2°41.536 14.9 29 4.5 102490 93
2005-03-08 08:10:11 51°14.302 2°41.513 14.1 32 4.5 102480 93
2005-03-08 08:10:17 51°14.301 2°41.479 13.8 31 4.5 102480 93
2005-03-08 08:10:21 51°14.3 2°41.456 14 29 4.5 102480 93
2005-03-08 08:10:27 51°14.298 2°41.42 15.4 32 4.5 102480 93
2005-03-08 08:10:32 51°14.298 2°41.392 13.7 30 4.5 102490 93
2005-03-08 08:10:37 51°14.296 2°41.362 15.9 34 4.5 102490 93
2005-03-08 08:10:42 51°14.296 2°41.333 15 31 4.5 102480 93
2005-03-08 08:10:47 51°14.293 2°41.303 15.5 29 4.5 102480 93
2005-03-08 08:10:51 51°14.294 2°41.28 15.3 31 4.5 102500 93
2005-03-08 08:10:57 51°14.292 2°41.245 15.1 33 4.5 102500 93
2005-03-08 08:11:01 51°14.292 2°41.219 16.1 35 4.5 102490 93
2005-03-08 08:11:07 51°14.29 2°41.187 14.8 35 4.5 102490 93
2005-03-08 08:11:11 51°14.291 2°41.16 14.8 31 4.5 102490 93
2005-03-08 08:11:17 51°14.289 2°41.126 15.7 39 4.5 102490 93
2005-03-08 08:11:21 51°14.288 2°41.103 15.5 30 4.5 102490 93
2005-03-08 08:11:27 51°14.287 2°41.07 15.7 34 4.5 102490 93
2005-03-08 08:11:30 51°14.286 2°41.051 15.5 34 4.5 102490 93
2005-03-08 08:11:37 51°14.284 2°41.013 15.9 33 4.5 102490 93
2005-03-08 08:11:41 51°14.283 2°40.99 15.4 35 4.5 102480 93
2005-03-08 08:11:47 51°14.283 2°40.955 14.7 33 4.5 102480 93
2005-03-08 08:11:51 51°14.282 2°40.933 15.1 30 4.5 102480 93
2005-03-08 08:11:57 51°14.28 2°40.897 15.9 35 4.5 102480 93
2005-03-08 08:12:01 51°14.28 2°40.871 14 29 4.5 102480 93
2005-03-08 08:12:07 51°14.278 2°40.84 14.7 32 4.5 102480 93
2005-03-08 08:12:11 51°14.277 2°40.816 15.4 27 4.5 102490 93
2005-03-08 08:12:17 51°14.277 2°40.781 15.5 36 4.5 102490 93
2005-03-08 08:12:21 51°14.276 2°40.755 13.7 38 4.5 102490 93
2005-03-08 08:12:27 51°14.275 2°40.724 14.5 34 4.5 102490 93
2005-03-08 08:12:31 51°14.274 2°40.701 14.7 30 4.5 102470 93
2005-03-08 08:12:37 51°14.273 2°40.665 15.3 35 4.5 102470 93
2005-03-08 08:12:41 51°14.272 2°40.639 15.2 32 4.5 102470 93
2005-03-08 08:12:46 51°14.27 2°40.611 16.3 34 4.5 102470 93
2005-03-08 08:12:52 51°14.269 2°40.577 13.9 35 4.5 102470 93
2005-03-08 08:12:57 51°14.268 2°40.551 14.6 32 4.5 102470 93
2005-03-08 08:13:01 51°14.266 2°40.524 16.2 37 4.5 102470 93
2005-03-08 08:13:07 51°14.266 2°40.492 14 31 4.5 102470 93
2005-03-08 08:13:11 51°14.264 2°40.47 14.4 32 4.5 102470 93
2005-03-08 08:13:17 51°14.263 2°40.434 14.4 34 4.5 102470 93
2005-03-08 08:13:22 51°14.262 2°40.403 15.2 40 4.5 102470 93
2005-03-08 08:13:27 51°14.26 2°40.377 15.1 29 4.5 102470 93
2005-03-08 08:13:31 51°14.26 2°40.35 14.6 35 4.5 102470 93
2005-03-08 08:13:37 51°14.258 2°40.32 15.3 38 4.5 102470 93
2005-03-08 08:13:41 51°14.257 2°40.293 15.8 34 4.5 102470 93
2005-03-08 08:13:47 51°14.255 2°40.262 15.6 33 4.5 102470 93
2005-03-08 08:13:51 51°14.255 2°40.239 15.3 38 4.5 102480 93
2005-03-08 08:13:57 51°14.253 2°40.204 14.5 38 4.5 102480 93
2005-03-08 08:14:01 51°14.253 2°40.179 14.6 35 4.5 102470 93
2005-03-08 08:14:07 51°14.251 2°40.147 15.9 34 4.5 102470 93
2005-03-08 08:14:11 51°14.25 2°40.123 15.7 37 4.5 102470 93
2005-03-08 08:14:17 51°14.249 2°40.09 15.8 33 4.5 102470 93
2005-03-08 08:14:21 51°14.247 2°40.065 15.2 36 4.5 102480 93
2005-03-08 08:14:27 51°14.247 2°40.032 14 30 4.5 102480 93
2005-03-08 08:14:31 51°14.247 2°40.01 14.2 30 4.5 102470 93
2005-03-08 08:14:37 51°14.244 2°39.975 15.2 33 4.5 102470 93
2005-03-08 08:14:41 51°14.245 2°39.951 14.5 32 4.5 102470 93
2005-03-08 08:14:47 51°14.242 2°39.918 15.2 36 4.5 102470 93
2005-03-08 08:14:51 51°14.24 2°39.895 15.2 35 4.5 102480 93
2005-03-08 08:14:57 51°14.237 2°39.86 14.2 33 4.5 102480 93
2005-03-08 08:15:01 51°14.236 2°39.834 13.5 39 4.5 102470 93
2005-03-08 08:15:07 51°14.232 2°39.8 14.6 40 4.5 102470 93
2005-03-08 08:15:12 51°14.23 2°39.771 15.8 35 4.5 102470 93
2005-03-08 08:15:17 51°14.227 2°39.745 16.3 40 4.5 102470 93
2005-03-08 08:15:21 51°14.226 2°39.72 13.9 34 4.5 102470 93
2005-03-08 08:15:27 51°14.222 2°39.687 15.5 37 4.5 102470 93
2005-03-08 08:15:31 51°14.221 2°39.665 13.6 38 4.5 102480 93
2005-03-08 08:15:37 51°14.217 2°39.632 14.5 38 4.5 102480 93
2005-03-08 08:15:41 51°14.214 2°39.605 15 38 4.5 102470 93
2005-03-08 08:15:47 51°14.212 2°39.573 14.7 40 4.5 102470 93
2005-03-08 08:15:51 51°14.209 2°39.549 14.2 37 4.5 102480 93
2005-03-08 08:15:57 51°14.206 2°39.513 13.2 40 4.5 102480 93
2005-03-08 08:16:02 51°14.203 2°39.486 13.7 38 4.5 102470 93
2005-03-08 08:16:07 51°14.201 2°39.458 14.5 39 4.5 102470 93
2005-03-08 08:16:10 51°14.198 2°39.438 15 37 4.5 102480 93
2005-03-08 08:16:17 51°14.194 2°39.398 15 36 4.5 102480 93
2005-03-08 08:16:21 51°14.192 2°39.375 14.6 41 4.5 102470 93
2005-03-08 08:16:27 51°14.188 2°39.343 14.6 38 4.5 102470 93
2005-03-08 08:16:31 51°14.186 2°39.317 15.3 39 4.5 102470 93
2005-03-08 08:16:37 51°14.182 2°39.286 15.2 35 4.5 102470 93
2005-03-08 08:16:41 51°14.18 2°39.263 15.1 35 4.5 102470 93
2005-03-08 08:16:47 51°14.177 2°39.229 13.5 40 4.5 102470 93
2005-03-08 08:16:51 51°14.173 2°39.203 14.6 38 4.5 102480 93
2005-03-08 08:16:57 51°14.17 2°39.169 14.8 36 4.5 102480 93
2005-03-08 08:17:02 51°14.167 2°39.14 15.1 34 4.5 102480 93
2005-03-08 08:17:07 51°14.164 2°39.115 13.8 39 4.5 102480 93
2005-03-08 08:17:11 51°14.162 2°39.092 15.2 38 4.5 102470 93
2005-03-08 08:17:17 51°14.157 2°39.057 14 35 4.5 102470 93
2005-03-08 08:17:21 51°14.154 2°39.031 14.9 36 4.5 102470 93
2005-03-08 08:17:27 51°14.15 2°38.999 14.7 31 4.5 102470 93
2005-03-08 08:17:31 51°14.149 2°38.972 15.3 38 4.5 102470 93
2005-03-08 08:17:37 51°14.145 2°38.94 14.1 37 4.5 102470 93
2005-03-08 08:17:41 51°14.143 2°38.914 14.9 37 4.5 102470 93
2005-03-08 08:17:47 51°14.139 2°38.881 14.2 32 4.5 102470 93
2005-03-08 08:17:52 51°14.137 2°38.85 14.2 38 4.5 102480 93
2005-03-08 08:17:57 51°14.133 2°38.824 14.5 35 4.5 102480 93
2005-03-08 08:18:01 51°14.132 2°38.798 15.5 39 4.5 102480 93
2005-03-08 08:18:07 51°14.129 2°38.765 14.9 36 4.5 102480 93
2005-03-08 08:18:12 51°14.126 2°38.733 15.1 34 4.5 102480 93
2005-03-08 08:18:17 51°14.122 2°38.707 15 35 4.5 102480 93
2005-03-08 08:18:21 51°14.121 2°38.68 14.2 32 4.5 102480 93
2005-03-08 08:18:27 51°14.117 2°38.648 14.3 34 4.5 102480 93
2005-03-08 08:18:31 51°14.116 2°38.626 14.6 38 4.5 102470 93
2005-03-08 08:18:37 51°14.111 2°38.589 14.7 36 4.5 102470 93
2005-03-08 08:18:41 51°14.109 2°38.564 15 35 4.5 102480 93
2005-03-08 08:18:47 51°14.106 2°38.531 15.6 40 4.5 102480 93
2005-03-08 08:18:51 51°14.104 2°38.507 14.1 36 4.5 102480 93
2005-03-08 08:18:57 51°14.1 2°38.472 16.1 39 4.5 102480 93
2005-03-08 08:19:01 51°14.096 2°38.446 14.3 36 4.5 102480 93
2005-03-08 08:19:07 51°14.093 2°38.414 14.6 32 4.5 102480 93
2005-03-08 08:19:12 51°14.089 2°38.381 13.9 32 4.6 102480 92
2005-03-08 08:19:17 51°14.087 2°38.355 14.8 45 4.6 102480 92
2005-03-08 08:19:21 51°14.083 2°38.332 15.1 35 4.6 102540 92
2005-03-08 08:19:27 51°14.081 2°38.295 14.3 36 4.6 102540 92
2005-03-08 08:19:32 51°14.077 2°38.266 16.2 40 4.5 102540 92
2005-03-08 08:19:37 51°14.075 2°38.236 13.7 38 4.5 102540 92
2005-03-08 08:19:41 51°14.071 2°38.211 14.6 39 4.5 102520 92
2005-03-08 08:19:47 51°14.066 2°38.178 14.7 38 4.5 102520 92
2005-03-08 08:19:52 51°14.062 2°38.147 12.8 40 4.5 102540 92
2005-03-08 08:19:57 51°14.054 2°38.119 13.6 41 4.5 102540 92
2005-03-08 08:20:01 51°14.051 2°38.096 12.8 37 4.6 102530 92
2005-03-08 08:20:07 51°14.043 2°38.065 14.4 49 4.6 102530 92
2005-03-08 08:20:11 51°14.037 2°38.042 14.5 42 4.5 102540 92
2005-03-08 08:20:17 51°14.03 2°38.008 14.9 52 4.5 102540 92
2005-03-08 08:20:21 51°14.022 2°37.984 13.6 45 4.6 102550 92
2005-03-08 08:20:27 51°14.013 2°37.952 14.9 56 4.6 102550 92
2005-03-08 08:20:32 51°14.004 2°37.924 11.2 47 4.6 102540 92
2005-03-08 08:20:37 51°13.995 2°37.9 15.5 53 4.6 102540 92
2005-03-08 08:20:41 51°13.989 2°37.875 13.8 52 4.6 102530 92
2005-03-08 08:20:47 51°13.977 2°37.847 12.9 43 4.6 102530 92
2005-03-08 08:20:52 51°13.97 2°37.818 12.6 54 4.5 102530 92
2005-03-08 08:20:57 51°13.96 2°37.794 12.9 52 4.5 102530 92
2005-03-08 08:21:02 51°13.95 2°37.767 14.2 54 4.6 102530 92
2005-03-08 08:21:07 51°13.94 2°37.74 12.6 44 4.6 102530 92
2005-03-08 08:21:12 51°13.931 2°37.711 14.5 55 4.5 102540 92
2005-03-08 08:21:17 51°13.921 2°37.689 14 46 4.5 102540 92
2005-03-08 08:21:21 51°13.913 2°37.668 13 49 4.6 102490 92
2005-03-08 08:21:27 51°13.901 2°37.633 13 51 4.6 102490 92
2005-03-08 08:21:31 51°13.893 2°37.613 15 56 4.5 102490 92
2005-03-08 08:21:37 51°13.883 2°37.584 13.9 51 4.5 102490 92
2005-03-08 08:21:41 51°13.875 2°37.56 13.3 49 4.6 102490 92
2005-03-08 08:21:47 51°13.864 2°37.531 15.2 57 4.6 102490 92
2005-03-08 08:21:51 51°13.856 2°37.507 12.4 41 4.5 102480 92
2005-03-08 08:21:57 51°13.846 2°37.477 16.2 54 4.5 102480 92
2005-03-08 08:22:01 51°13.838 2°37.455 13.3 53 4.5 102490 92
2005-03-08 08:22:07 51°13.827 2°37.425 14.1 50 4.5 102490 92
2005-03-08 08:22:11 51°13.82 2°37.404 15 55 4.5 102480 92
2005-03-08 08:22:17 51°13.81 2°37.372 13.8 51 4.5 102480 92
2005-03-08 08:22:22 51°13.799 2°37.343 13.7 52 4.6 102480 92
2005-03-08 08:22:27 51°13.79 2°37.316 14 57 4.6 102480 92
2005-03-08 08:22:32 51°13.78 2°37.29 13.7 49 4.5 102480 92
2005-03-08 08:22:37 51°13.771 2°37.263 14.1 49 4.5 102480 92
2005-03-08 08:22:41 51°13.764 2°37.242 12.7 47 4.5 102480 92
2005-03-08 08:22:47 51°13.754 2°37.213 14 50 4.5 102480 92
2005-03-08 08:22:51 51°13.746 2°37.192 14.4 52 4.6 102480 92
2005-03-08 08:22:57 51°13.735 2°37.158 13.2 53 4.6 102480 92
2005-03-08 08:23:02 51°13.725 2°37.131 13.9 52 4.6 102480 92
2005-03-08 08:23:07 51°13.718 2°37.106 14 53 4.6 102480 92
2005-03-08 08:23:10 51°13.71 2°37.088 14.8 59 4.5 102560 92
2005-03-08 08:23:17 51°13.697 2°37.051 13.3 47 4.5 102560 92
2005-03-08 08:23:21 51°13.69 2°37.03 13.4 56 4.6 102490 92
2005-03-08 08:23:27 51°13.679 2°37.002 12.4 50 4.6 102490 92
2005-03-08 08:23:32 51°13.669 2°36.973 14.4 54 4.6 102490 92
2005-03-08 08:23:37 51°13.661 2°36.947 13.6 49 4.6 102490 92
2005-03-08 08:23:41 51°13.654 2°36.927 14.1 54 4.6 102530 92
2005-03-08 08:23:47 51°13.644 2°36.898 13.2 48 4.6 102530 92
2005-03-08 08:23:52 51°13.634 2°36.872 14.1 51 4.6 102480 92
2005-03-08 08:23:57 51°13.626 2°36.845 12.6 53 4.6 102480 92
2005-03-08 08:24:01 51°13.618 2°36.822 13.3 44 4.6 102500 92
2005-03-08 08:24:07 51°13.608 2°36.792 14.5 54 4.6 102500 92
2005-03-08 08:24:12 51°13.598 2°36.765 13.4 42 4.6 102500 92
2005-03-08 08:24:17 51°13.59 2°36.735 14.9 56 4.6 102500 92
2005-03-08 08:24:22 51°13.581 2°36.713 12.9 51 4.6 102500 92
2005-03-08 08:24:27 51°13.572 2°36.687 13.9 48 4.6 102500 92
2005-03-08 08:24:31 51°13.564 2°36.665 15 49 4.6 102500 92
2005-03-08 08:24:37 51°13.555 2°36.632 13.2 56 4.6 102500 92
2005-03-08 08:24:41 51°13.546 2°36.61 12.7 54 4.6 102510 92
2005-03-08 08:24:47 51°13.536 2°36.581 12.6 49 4.6 102510 92
2005-03-08 08:24:51 51°13.527 2°36.557 13.5 52 4.6 102500 92
2005-03-08 08:24:57 51°13.515 2°36.528 13.7 50 4.6 102500 92
2005-03-08 08:25:01 51°13.507 2°36.507 13.6 57 4.6 102500 92
2005-03-08 08:25:07 51°13.495 2°36.476 11.9 49 4.6 102500 92
2005-03-08 08:25:11 51°13.489 2°36.458 13.8 55 4.6 102500 92
2005-03-08 08:25:17 51°13.476 2°36.425 12.1 49 4.6 102500 92
2005-03-08 08:25:22 51°13.467 2°36.402 14.1 54 4.6 102500 92
2005-03-08 08:25:27 51°13.458 2°36.375 12.6 50 4.6 102500 92
2005-03-08 08:25:31 51°13.448 2°36.353 14.5 52 4.6 102500 92
2005-03-08 08:25:37 51°13.437 2°36.323 11.9 50 4.6 102500 92
2005-03-08 08:25:42 51°13.427 2°36.297 14.1 55 4.6 102490 92
2005-03-08 08:25:47 51°13.419 2°36.273 13.5 56 4.6 102490 92
2005-03-08 08:25:50 51°13.412 2°36.256 14.6 54 4.6 102500 92
2005-03-08 08:25:57 51°13.399 2°36.223 12.8 54 4.6 102500 92
2005-03-08 08:26:01 51°13.39 2°36.201 13.5 53 4.6 102510 92
2005-03-08 08:26:07 51°13.378 2°36.172 13.7 50 4.6 102510 92
2005-03-08 08:26:11 51°13.371 2°36.152 13.7 59 4.6 102490 92
2005-03-08 08:26:17 51°13.358 2°36.122 13.4 49 4.6 102490 92
2005-03-08 08:26:21 51°13.352 2°36.101 14.5 55 4.6 102540 92
2005-03-08 08:26:27 51°13.339 2°36.067 13 49 4.6 102540 92
2005-03-08 08:26:32 51°13.331 2°36.041 12.7 50 4.6 102500 92
2005-03-08 08:26:37 51°13.32 2°36.015 14.5 54 4.6 102500 92
2005-03-08 08:26:41 51°13.314 2°35.995 13.8 55 4.6 102500 92
2005-03-08 08:26:47 51°13.302 2°35.968 13.3 52 4.6 102500 92
2005-03-08 08:26:52 51°13.293 2°35.938 14.5 50 4.6 102510 92
2005-03-08 08:26:57 51°13.284 2°35.913 13.9 59 4.6 102510 92
2005-03-08 08:27:02 51°13.274 2°35.889 12.7 54 4.6 102490 92
2005-03-08 08:27:07 51°13.266 2°35.866 14.7 62 4.6 102490 92
2005-03-08 08:27:11 51°13.255 2°35.847 13.1 51 4.6 102500 92
2005-03-08 08:27:17 51°13.245 2°35.814 13.9 53 4.6 102500 92
2005-03-08 08:27:21 51°13.236 2°35.794 13.2 52 4.6 102500 92
2005-03-08 08:27:27 51°13.223 2°35.768 14.1 58 4.6 102500 92
2005-03-08 08:27:31 51°13.216 2°35.746 13.1 59 4.6 102490 92
2005-03-08 08:27:37 51°13.201 2°35.715 12.8 52 4.6 102490 92
2005-03-08 08:27:41 51°13.195 2°35.694 10.9 53 4.6 102490 92
2005-03-08 08:27:47 51°13.181 2°35.669 13.9 55 4.6 102490 92
2005-03-08 08:27:51 51°13.176 2°35.646 12.7 56 4.6 102500 92
2005-03-08 08:27:57 51°13.16 2°35.615 12.3 53 4.6 102500 92
2005-03-08 08:28:01 51°13.155 2°35.596 13.2 60 4.6 102500 92
2005-03-08 08:28:07 51°13.142 2°35.568 13 53 4.6 102500 92
2005-03-08 08:28:12 51°13.132 2°35.543 14.6 57 4.6 102500 92
2005-03-08 08:28:17 51°13.12 2°35.518 13.4 -999 4.6 102500 92
2005-03-08 08:28:21 51°13.113 2°35.496 14.1 53 4.6 102510 92
2005-03-08 08:28:27 51°13.101 2°35.469 13.9 58 4.6 102510 92
2005-03-08 08:28:31 51°13.093 2°35.449 13.1 54 4.6 102500 92
2005-03-08 08:28:37 51°13.081 2°35.418 13.1 59 4.6 102500 92
2005-03-08 08:28:42 51°13.069 2°35.393 13.9 59 4.5 102510 92
2005-03-08 08:28:47 51°13.059 2°35.368 13.6 49 4.5 102510 92
2005-03-08 08:28:51 51°13.051 2°35.348 13.4 57 4.6 102500 92
2005-03-08 08:28:57 51°13.04 2°35.321 12 50 4.6 102500 92
2005-03-08 08:29:01 51°13.031 2°35.299 13 56 4.6 102510 92
2005-03-08 08:29:07 51°13.02 2°35.271 11.7 44 4.6 102510 92
2005-03-08 08:29:11 51°13.011 2°35.248 13.7 58 4.6 102510 92
2005-03-08 08:29:17 51°13 2°35.222 12.7 52 4.6 102510 92
2005-03-08 08:29:21 51°12.992 2°35.2 13.1 62 4.5 102510 92
2005-03-08 08:29:27 51°12.978 2°35.174 12.6 46 4.5 102510 92
2005-03-08 08:29:32 51°12.97 2°35.146 12.3 57 4.6 102510 92
2005-03-08 08:29:37 51°12.957 2°35.122 13.9 56 4.6 102510 92
2005-03-08 08:29:41 51°12.95 2°35.102 13.7 53 4.5 102510 92
2005-03-08 08:29:47 51°12.938 2°35.074 13.4 54 4.5 102510 92
2005-03-08 08:29:51 51°12.93 2°35.053 13.3 57 4.5 102500 92
2005-03-08 08:29:57 51°12.919 2°35.025 12.2 57 4.5 102500 92
2005-03-08 08:30:02 51°12.908 2°34.998 14.6 52 4.5 102510 92
2005-03-08 08:30:07 51°12.899 2°34.974 12.6 52 4.5 102510 92
2005-03-08 08:30:11 51°12.891 2°34.955 14.3 55 4.5 102510 92
2005-03-08 08:30:17 51°12.879 2°34.925 12.7 55 4.5 102510 92
2005-03-08 08:30:22 51°12.868 2°34.902 14.9 57 4.5 102510 92
2005-03-08 08:30:27 51°12.858 2°34.876 13.9 51 4.5 102510 92
2005-03-08 08:30:31 51°12.849 2°34.857 14 59 4.5 102500 92
2005-03-08 08:30:37 51°12.838 2°34.827 14.4 56 4.5 102500 92
2005-03-08 08:30:41 51°12.827 2°34.806 14.4 61 4.5 102500 92
2005-03-08 08:30:47 51°12.816 2°34.778 11.1 58 4.5 102500 92
2005-03-08 08:30:51 51°12.806 2°34.758 12.9 60 4.5 102510 92
2005-03-08 08:30:57 51°12.794 2°34.732 13 54 4.5 102510 92
2005-03-08 08:31:01 51°12.783 2°34.71 13.5 59 4.5 102500 92
2005-03-08 08:31:07 51°12.772 2°34.684 10.3 65 4.5 102500 92
2005-03-08 08:31:12 51°12.758 2°34.659 12.5 53 4.5 102500 92
2005-03-08 08:31:17 51°12.748 2°34.635 13.2 58 4.5 102500 92
2005-03-08 08:31:21 51°12.739 2°34.616 12.8 62 4.5 102510 92
2005-03-08 08:31:27 51°12.725 2°34.591 12.1 65 4.5 102510 92
2005-03-08 08:31:31 51°12.715 2°34.573 13.9 62 4.5 102500 92
2005-03-08 08:31:37 51°12.701 2°34.543 14.2 61 4.5 102500 92
2005-03-08 08:31:41 51°12.69 2°34.523 11.5 72 4.6 102500 92
2005-03-08 08:31:47 51°12.678 2°34.499 11.9 61 4.6 102500 92
2005-03-08 08:31:52 51°12.664 2°34.476 14 63 4.5 102510 92
2005-03-08 08:31:57 51°12.651 2°34.451 12 59 4.5 102510 92
2005-03-08 08:32:02 51°12.639 2°34.43 12.4 63 4.5 102500 92
2005-03-08 08:32:07 51°12.628 2°34.408 13 65 4.5 102500 92
2005-03-08 08:32:12 51°12.615 2°34.387 12.5 58 4.5 102510 92
2005-03-08 08:32:17 51°12.604 2°34.363 11.4 71 4.5 102510 92
2005-03-08 08:32:21 51°12.591 2°34.345 13.1 60 4.5 102510 92
2005-03-08 08:32:27 51°12.579 2°34.318 13.5 65 4.5 102510 92
2005-03-08 08:32:32 51°12.564 2°34.296 12.1 61 4.5 102510 92
2005-03-08 08:32:37 51°12.553 2°34.275 13.2 59 4.5 102510 92
2005-03-08 08:32:41 51°12.543 2°34.254 11.6 59 4.5 102500 92
2005-03-08 08:32:47 51°12.526 2°34.23 12.7 60 4.5 102500 92
2005-03-08 08:32:52 51°12.516 2°34.207 11.4 65 4.5 102510 92
2005-03-08 08:32:57 51°12.503 2°34.19 11.4 59 4.5 102510 92
2005-03-08 08:33:01 51°12.493 2°34.171 13 58 4.5 102510 92
2005-03-08 08:33:07 51°12.48 2°34.141 12.4 59 4.5 102510 92
2005-03-08 08:33:12 51°12.467 2°34.123 11.8 63 4.5 102510 92
2005-03-08 08:33:17 51°12.455 2°34.101 10.9 68 4.5 102510 92
2005-03-08 08:33:22 51°12.442 2°34.08 11.8 59 4.5 102520 92
2005-03-08 08:33:27 51°12.429 2°34.057 13 66 4.5 102520 92
2005-03-08 08:33:31 51°12.42 2°34.04 12.5 65 4.5 102510 93
2005-03-08 08:33:37 51°12.404 2°34.015 12.7 61 4.5 102510 93
2005-03-08 08:33:41 51°12.394 2°33.995 12.4 61 4.5 102510 93
2005-03-08 08:33:47 51°12.379 2°33.97 13.8 61 4.5 102510 93
2005-03-08 08:33:51 51°12.367 2°33.951 11.8 63 4.5 102510 93
2005-03-08 08:33:57 51°12.352 2°33.927 11.3 68 4.5 102510 93
2005-03-08 08:34:02 51°12.34 2°33.909 10.9 69 4.5 102510 93
2005-03-08 08:34:07 51°12.327 2°33.889 12.6 63 4.5 102510 93
2005-03-08 08:34:12 51°12.313 2°33.865 11.9 65 4.5 102510 93
2005-03-08 08:34:17 51°12.298 2°33.848 12.1 62 4.5 102510 93
2005-03-08 08:34:21 51°12.29 2°33.828 11.1 61 4.6 102510 93
2005-03-08 08:34:27 51°12.273 2°33.809 12.1 59 4.6 102510 93
2005-03-08 08:34:30 51°12.264 2°33.793 10.6 68 4.5 102510 93
2005-03-08 08:34:37 51°12.246 2°33.769 11.8 66 4.5 102510 93
2005-03-08 08:34:41 51°12.234 2°33.751 9.8 75 4.5 102510 93
2005-03-08 08:34:47 51°12.219 2°33.729 10.3 74 4.5 102510 93
2005-03-08 08:34:51 51°12.205 2°33.711 12.3 67 4.5 102510 93
2005-03-08 08:34:57 51°12.19 2°33.686 11.2 69 4.5 102510 93
2005-03-08 08:35:02 51°12.175 2°33.67 12.6 66 4.5 102510 93
2005-03-08 08:35:07 51°12.163 2°33.651 11.2 66 4.5 102510 93
2005-03-08 08:35:11 51°12.151 2°33.638 11.3 76 4.5 102520 93
2005-03-08 08:35:17 51°12.132 2°33.618 11.9 62 4.5 102520 93
2005-03-08 08:35:21 51°12.119 2°33.6 11.4 79 4.5 102520 93
2005-03-08 08:35:27 51°12.103 2°33.582 9.9 68 4.5 102520 93
2005-03-08 08:35:32 51°12.088 2°33.563 9 74 4.5 102520 93
2005-03-08 08:35:37 51°12.074 2°33.544 9.5 73 4.5 102520 93
2005-03-08 08:35:42 51°12.058 2°33.528 8.3 79 4.5 102520 93
2005-03-08 08:35:47 51°12.043 2°33.51 9.7 69 4.5 102520 93
2005-03-08 08:35:52 51°12.027 2°33.495 9.1 76 4.5 102520 93
2005-03-08 08:35:57 51°12.011 2°33.476 10.2 76 4.5 102520 93
2005-03-08 08:36:02 51°11.995 2°33.464 10.1 76 4.5 102510 93
2005-03-08 08:36:07 51°11.981 2°33.446 10.4 80 4.5 102510 93
2005-03-08 08:36:11 51°11.968 2°33.437 9.2 79 4.5 102520 93
2005-03-08 08:36:17 51°11.952 2°33.416 10.2 80 4.5 102520 93
2005-03-08 08:36:21 51°11.942 2°33.405 7.4 74 4.5 102520 93
2005-03-08 08:36:27 51°11.93 2°33.39 11.6 83 4.5 102520 93
2005-03-08 08:36:31 51°11.923 2°33.38 10.4 81 4.5 102520 93
2005-03-08 08:36:37 51°11.911 2°33.363 9.9 78 4.5 102520 93
2005-03-08 08:36:41 51°11.905 2°33.354 10.2 82 4.5 102550 93
2005-03-08 08:36:47 51°11.896 2°33.342 8 80 4.5 102550 93
2005-03-08 08:36:51 51°11.891 2°33.333 8.7 82 4.5 102560 93
2005-03-08 08:36:57 51°11.883 2°33.322 10.1 84 4.5 102560 93
2005-03-08 08:37:01 51°11.878 2°33.316 9.8 92 4.5 102560 93
2005-03-08 08:37:07 51°11.87 2°33.308 9.5 98 4.5 102560 93
2005-03-08 08:37:12 51°11.864 2°33.302 9.2 105 4.5 102580 93
2005-03-08 08:37:17 51°11.857 2°33.298 8.7 111 4.5 102580 93
2005-03-08 08:37:22 51°11.851 2°33.293 9 113 4.5 102570 93
2005-03-08 08:37:27 51°11.845 2°33.292 7.8 122 4.5 102570 93
2005-03-08 08:37:31 51°11.84 2°33.289 8.6 128 4.5 102570 93
2005-03-08 08:37:37 51°11.834 2°33.288 9 131 4.5 102570 93
2005-03-08 08:37:42 51°11.828 2°33.287 8.8 129 4.5 102580 93
2005-03-08 08:37:47 51°11.823 2°33.287 8.3 128 4.5 102580 93
2005-03-08 08:37:51 51°11.819 2°33.287 8.5 134 4.5 102580 93
2005-03-08 08:37:57 51°11.813 2°33.287 7.5 133 4.5 102580 93
2005-03-08 08:38:02 51°11.808 2°33.287 7.9 136 4.5 102580 93
2005-03-08 08:38:07 51°11.804 2°33.288 8.5 130 4.5 102580 93
2005-03-08 08:38:11 51°11.801 2°33.288 9.5 129 4.5 102580 93
2005-03-08 08:38:17 51°11.798 2°33.288 8.8 126 4.5 102580 93
2005-03-08 08:38:21 51°11.795 2°33.289 8.6 124 4.5 102580 93
2005-03-08 08:38:27 51°11.792 2°33.289 8.7 119 4.5 102580 93
2005-03-08 08:38:31 51°11.79 2°33.289 9 121 4.5 102580 93
2005-03-08 08:38:37 51°11.787 2°33.29 8.7 114 4.5 102580 93
2005-03-08 08:38:42 51°11.784 2°33.29 8.9 114 4.5 102570 93
2005-03-08 08:38:47 51°11.782 2°33.29 7.8 118 4.5 102570 93
2005-03-08 08:38:51 51°11.78 2°33.29 7.9 121 4.5 102580 93
2005-03-08 08:38:57 51°11.777 2°33.29 8.6 109 4.5 102580 93
2005-03-08 08:39:02 51°11.775 2°33.29 8 110 4.5 102610 93
2005-03-08 08:39:07 51°11.773 2°33.29 8.1 113 4.5 102610 93
2005-03-08 08:39:11 51°11.771 2°33.29 8 116 4.5 102590 93
2005-03-08 08:39:18 51°11.769 2°33.29 7.5 104 4.5 102590 93
2005-03-08 08:39:21 51°11.767 2°33.29 8.2 110 4.5 102590 93
2005-03-08 08:39:27 51°11.765 2°33.29 8.8 111 4.5 102590 93
2005-03-08 08:39:31 51°11.764 2°33.29 8.1 110 4.5 102590 93
2005-03-08 08:39:37 51°11.761 2°33.29 9 101 4.5 102590 93
2005-03-08 08:39:42 51°11.76 2°33.291 8.1 103 4.5 102600 93
2005-03-08 08:39:47 51°11.758 2°33.291 8.7 109 4.5 102600 93
2005-03-08 08:39:51 51°11.757 2°33.292 8.4 114 4.5 102600 93
2005-03-08 08:39:57 51°11.754 2°33.292 7.9 108 4.5 102600 93
2005-03-08 08:40:01 51°11.753 2°33.292 9.2 112 4.5 102600 93
2005-03-08 08:40:07 51°11.751 2°33.292 9.7 104 4.5 102600 93
2005-03-08 08:40:11 51°11.75 2°33.293 8.6 106 4.5 102600 93
2005-03-08 08:40:17 51°11.748 2°33.293 8.8 100 4.5 102600 93
2005-03-08 08:40:21 51°11.746 2°33.294 9.3 101 4.5 102590 93
2005-03-08 08:40:27 51°11.744 2°33.294 8.7 103 4.5 102590 93
2005-03-08 08:40:32 51°11.743 2°33.294 8.3 106 4.5 102600 93
2005-03-08 08:40:37 51°11.741 2°33.294 9.4 104 4.5 102600 93
2005-03-08 08:40:42 51°11.739 2°33.294 8.4 109 4.5 102600 93
2005-03-08 08:40:47 51°11.738 2°33.294 7.9 109 4.5 102600 93
2005-03-08 08:40:52 51°11.736 2°33.294 8.1 103 4.5 102590 93
2005-03-08 08:40:57 51°11.734 2°33.295 7.4 105 4.5 102590 93
2005-03-08 08:41:01 51°11.733 2°33.294 8.3 102 4.5 102600 93
2005-03-08 08:41:07 51°11.73 2°33.294 7.4 100 4.5 102600 93
2005-03-08 08:41:12 51°11.728 2°33.294 7.6 114 4.5 102610 93
2005-03-08 08:41:17 51°11.727 2°33.294 8.7 100 4.5 102610 93
2005-03-08 08:41:21 51°11.725 2°33.293 8.5 104 4.5 102600 93
2005-03-08 08:41:26 51°11.723 2°33.292 8.3 100 4.5 102600 93
2005-03-08 08:41:31 51°11.72 2°33.292 8.2 99 4.5 102610 93
2005-03-08 08:41:37 51°11.718 2°33.29 8 96 4.5 102610 93
2005-03-08 08:41:41 51°11.715 2°33.288 9.3 93 4.5 102590 93
2005-03-08 08:41:47 51°11.712 2°33.287 8.7 101 4.5 102590 93
2005-03-08 08:41:51 51°11.709 2°33.285 8.8 87 4.5 102600 93
2005-03-08 08:41:57 51°11.706 2°33.282 9.2 89 4.5 102600 93
2005-03-08 08:42:01 51°11.703 2°33.28 9.3 93 4.5 102600 93
2005-03-08 08:42:06 51°11.7 2°33.277 9.7 88 4.5 102600 93
2005-03-08 08:42:11 51°11.697 2°33.274 9.3 92 4.5 102610 93
2005-03-08 08:42:17 51°11.692 2°33.27 9.2 86 4.5 102610 93
2005-03-08 08:42:21 51°11.69 2°33.267 9.3 86 4.4 102600 93
2005-03-08 08:42:27 51°11.686 2°33.263 9 86 4.4 102600 93
2005-03-08 08:42:31 51°11.683 2°33.259 9.8 87 4.5 102570 93
2005-03-08 08:42:37 51°11.679 2°33.255 11.2 88 4.5 102570 93
2005-03-08 08:42:41 51°11.676 2°33.252 10.1 95 4.4 102570 93
2005-03-08 08:42:47 51°11.673 2°33.247 10.4 84 4.4 102570 93